{"data":{"norad_id":63895,"intl_designator":"2025-095F","name":"STARLINK-34119","alt_names":[],"object_type":"PAYLOAD","status":"ACTIVE","operator":null,"country":"US","launch_date":"2025-05-10","launch_site_code":"AFETR","launch_vehicle":null,"mission":null,"orbit_class":"UNKNOWN","rcs_meters":null,"size_class":null,"mass_kg":null,"dimensions":null,"purposes":["comms"],"wikipedia_slug":null,"has_3d_model":false,"image_url":null,"decayed_at":null,"tle_current":{"epoch":"2026-05-25T04:24:06.579936Z","epoch_age_seconds":53208,"freshness":"FRESH","line1":"1 63895U 25095F   26145.18340949  .00016188  00000+0  59623-3 0  9999","line2":"2 63895  42.9990 104.4720 0001414 275.1177  84.9513 15.27593726 59487","mean_motion":15.27593726,"eccentricity":0.0001414,"inclination_deg":42.999,"raan_deg":104.472,"arg_perigee_deg":275.1177,"mean_anomaly_deg":84.9513,"bstar":0.00059623,"rev_number":5948,"period_min":94.265901691717,"perigee_km":482.0378298631,"apogee_km":483.97816166791,"semimajor_km":6861.1449957655,"source":"CELESTRAK","updated_at":"2026-05-25T13:38:20.175662Z"}}}